Terminal Aerodrome Forecast
Issued by NWS

Home | Current Version | Previous Version | Graphics & Text | Print | Product List | Glossary On
Versions: 1 2 3 4 5 6 7 8 9 10 11 12 13 14 15 16 17 18 19 20 21 22 23 24 25 26 27 28 29 30 31 32
030
FTUS43 KBIS 280521
TAFDIK
TAF
KDIK 280521Z 2806/2906 10006KT P6SM SCT025 BKN050
     FM280800 09006KT 6SM BR VCSH OVC025
     FM281500 10008KT P6SM BKN035 OVC080
     FM282300 10007KT P6SM SCT040=

USA.gov is the U.S. government's official web portal to all federal, state and local government web resources and services.